EW1802 Weather Reports


time (UTC)temp
C
wind
direction
speed
KPH
gust
KPH
rain 1hr
cm
rain 24hr
cm
rain mn
cm
humidity
%
barometer
mb
20260506124203 8 229 0.0 0.0 0.10 1.04 1.02 98 1006.0
20260506123704 7 222 0.0 0.0 0.10 1.04 1.02 98 1005.7
20260506123204 8 176 0.0 0.0 0.10 1.04 1.02 98 1005.4
20260506122705 8 184 0.0 0.0 0.10 1.04 1.02 98 1005.3
20260506122204 8 155 0.0 0.0 0.10 1.04 1.02 98 1005.3
20260506121703 8 217 0.0 0.0 0.10 1.04 1.02 98 1005.4
20260506121203 8 218 0.0 0.0 0.10 1.04 1.02 98 1005.3
20260506120704 8 236 0.0 0.0 0.08 1.02 0.99 98 1005.0
20260506120204 8 151 0.0 0.0 0.08 1.02 0.99 98 1005.0
20260506115704 8 202 0.0 0.0 0.05 0.99 0.97 98 1005.5
20260506115205 8 226 0.0 0.0 0.03 0.97 0.94 98 1006.0
20260506114704 8 187 0.0 0.0 0.03 0.97 0.94 98 1005.8
20260506113203 8 183 0.0 0.0 0.00 0.94 0.91 98 1005.2
20260506112704 8 211 0.0 0.0 0.03 0.94 0.91 98 1005.2
20260506112204 8 211 0.0 0.0 0.03 0.94 0.91 98 1004.9
20260506111704 8 211 0.0 0.0 0.03 0.94 0.91 98 1004.7
20260506111204 8 211 0.0 0.0 0.05 0.94 0.91 98 1004.7
20260506110704 8 211 0.0 0.0 0.05 0.94 0.91 98 1004.3
20260506110203 8 184 0.0 0.0 0.08 0.94 0.91 97 1003.9
20260506105703 8 246 0.0 0.0 0.08 0.94 0.91 97 1004.2
20260506105204 8 137 0.0 0.0 0.10 0.94 0.91 97 1003.8
20260506104704 8 130 0.0 0.0 0.13 0.94 0.91 98 1004.1
20260506104203 9 294 0.0 0.0 0.18 0.94 0.91 98 1004.3
20260506103704 9 227 0.0 0.0 0.18 0.94 0.91 98 1004.3
20260506102704 9 190 0.0 0.0 0.18 0.91 0.89 98 1004.0
20260506102204 9 215 0.0 0.0 0.18 0.91 0.89 98 1004.0
20260506101203 10 157 0.0 0.0 0.18 0.89 0.86 98 1004.2
20260506100704 10 243 0.0 0.0 0.18 0.89 0.86 98 1004.1
20260506100204 10 221 0.0 0.0 0.15 0.86 0.84 98 1004.0
20260506095704 10 210 0.0 0.0 0.15 0.86 0.84 97 1003.8
20260506095203 10 221 0.0 0.0 0.15 0.84 0.81 97 1003.6
20260506094703 10 200 0.0 0.0 0.15 0.81 0.79 97 1003.4
20260506094203 11 243 0.0 0.0 0.15 0.76 0.74 97 1003.5
20260506093704 11 253 0.0 0.0 0.18 0.76 0.74 97 1003.5
20260506093204 11 211 0.0 0.0 0.15 0.74 0.71 97 1003.5
20260506092203 12 214 0.0 0.0 0.23 0.74 0.71 97 1003.2
20260506091703 12 235 0.0 0.0 0.28 0.74 0.71 97 1003.1
20260506091204 12 235 0.0 0.0 0.28 0.71 0.69 98 1003.0
20260506090703 13 270 0.0 0.0 0.30 0.71 0.69 99 1003.0
20260506090203 13 293 0.0 0.0 0.33 0.71 0.69 99 1002.9
20260506085704 13 293 0.0 0.0 0.33 0.71 0.69 99 1002.9
20260506085204 13 293 0.0 0.0 0.33 0.69 0.66 99 1003.0
20260506084704 13 276 0.0 0.0 0.33 0.66 0.64 99 1003.1
20260506084204 13 189 0.0 0.0 0.28 0.61 0.58 98 1003.3
20260506083204 13 203 0.0 0.0 0.28 0.58 0.56 98 1003.2
20260506082704 13 203 0.0 0.0 0.25 0.53 0.51 98 1003.3
20260506082203 13 203 0.0 0.0 0.23 0.51 0.48 98 1003.3
20260506081704 13 203 0.0 0.0 0.18 0.46 0.43 98 1003.3
20260506080703 13 203 0.0 0.0 0.13 0.41 0.38 98 1003.2
20260506080204 13 203 0.0 0.0 0.10 0.38 0.36 98 1003.2
20260506073204 13 203 0.0 0.0 0.03 0.30 0.28 98 1003.2
20260506072703 13 203 0.0 0.0 0.00 0.28 0.25 98 1003.2
20260506072204 13 203 0.0 0.0 0.00 0.28 0.25 98 1003.2
20260506071704 13 203 0.0 0.0 0.00 0.28 0.25 98 1003.1
20260506071203 13 198 0.0 0.0 0.00 0.28 0.25 98 1003.1
20260506070704 13 198 0.0 0.0 0.00 0.28 0.25 98 1003.0
20260506070204 13 198 0.0 0.0 0.00 0.28 0.25 98 1003.2
20260506062204 13 278 0.0 0.0 0.08 0.28 0.25 98 1003.7
20260506061703 13 205 0.0 0.0 0.08 0.28 0.25 98 1003.7
20260506061204 13 243 0.0 0.0 0.08 0.28 0.25 98 1003.9
20260506060704 13 229 0.0 0.0 0.10 0.28 0.25 98 1003.8
20260506060203 14 191 0.0 0.0 0.10 0.28 0.25 98 1004.0
20260506050703 14 236 0.0 0.0 0.13 0.18 0.15 98 1004.9
20260506050204 14 235 0.0 0.0 0.15 0.18 0.15 98 1005.0
20260506044703 14 235 0.0 0.0 0.13 0.15 0.13 98 1005.2
20260506044204 14 235 0.0 0.0 0.13 0.15 0.13 98 1005.2
20260506043704 14 236 0.0 0.0 0.10 0.13 0.10 97 1005.3
20260506043204 14 236 0.0 0.0 0.10 0.13 0.10 97 1005.4
20260506042704 14 236 0.0 0.0 0.10 0.13 0.10 97 1005.4
20260506042203 14 236 0.0 0.0 0.08 0.10 0.08 97 1005.5
20260506041704 14 236 0.0 0.0 0.05 0.08 0.05 97 1005.5
20260506040203 14 236 0.0 0.0 0.00 0.03 0.00 97 1005.4
20260506035203 14 236 0.0 0.0 0.03 0.03 0.03 96 1005.3
20260506034204 14 236 0.0 0.0 0.00 0.00 0.00 96 1005.2
20260506033704 14 236 0.0 0.0 0.00 0.00 0.00 96 1005.3
20260506033205 14 236 0.0 0.0 0.00 0.00 0.00 96 1005.3
20260506032704 14 236 0.0 0.0 0.00 0.00 0.00 96 1005.4
20260506032203 14 236 0.0 0.0 0.00 0.00 0.00 96 1005.4
20260506031704 14 236 0.0 0.0 0.00 0.00 0.00 96 1005.4
20260506030703 14 109 0.0 0.0 0.00 0.00 0.00 95 1005.5
20260506030203 14 108 0.0 0.0 0.00 0.00 0.00 95 1005.4
20260506025704 14 108 0.0 0.0 0.00 0.00 0.00 95 1005.4
20260506025204 14 282 0.0 0.0 0.00 0.00 0.00 95 1005.3
20260506024204 15 291 0.0 0.0 0.00 0.00 0.00 94 1005.5
20260506022203 15 291 0.0 0.0 0.00 0.00 0.00 93 1005.2
20260506021703 15 291 0.0 0.0 0.00 0.00 0.00 92 1005.1
20260506021204 15 291 0.0 0.0 0.00 0.00 0.00 92 1005.4
20260506020704 15 290 0.0 0.0 0.00 0.00 0.00 91 1005.5
20260506020204 15 249 0.0 0.0 0.00 0.00 0.00 90 1005.5
20260506015703 15 252 0.0 0.0 0.00 0.00 0.00 89 1005.4
20260506013704 16 171 0.0 0.0 0.00 0.00 0.00 84 1005.6
20260506013204 16 208 0.0 0.0 0.00 0.00 0.00 83 1005.6
20260506012203 16 229 0.0 0.0 0.00 0.00 0.00 81 1005.1
20260506011704 16 229 0.0 0.0 0.00 0.00 0.00 80 1005.0
20260506011204 17 229 0.0 0.0 0.00 0.00 0.00 79 1005.1
20260506010704 17 229 0.0 0.0 0.00 0.00 0.00 77 1004.9
20260506010204 17 246 0.0 0.0 0.00 0.00 0.00 75 1005.0
20260506005704 18 257 0.0 0.0 0.00 0.00 0.00 71 1005.0
20260506005204 19 247 0.0 1.6 0.00 0.00 0.00 67 1005.0
20260506004704 20 326 0.0 0.0 0.00 0.00 0.00 61 1004.9
20260506004203 20 295 0.0 3.2 0.00 0.00 0.00 59 1004.5
20260506003703 20 218 0.0 0.0 0.00 0.00 0.00 60 1004.4
20260506003203 20 204 0.0 0.0 0.00 0.00 0.00 60 1004.4
20260506002704 20 272 0.0 0.0 0.00 0.00 0.00 60 1004.4
20260506002204 20 247 0.0 0.0 0.00 0.00 0.00 59 1004.3
20260506001704 20 218 0.0 0.0 0.00 0.00 0.00 60 1004.3
20260506001203 20 257 0.0 0.0 0.00 0.00 0.00 59 1004.2
20260506000204 20 261 0.0 1.6 0.00 0.00 0.00 60 1004.4
20260505235704 20 201 0.0 0.0 0.00 0.00 0.00 60 1004.3
20260505235204 20 269 0.0 0.0 0.00 0.00 0.00 60 1004.4
20260505234704 20 215 0.0 0.0 0.00 0.00 0.00 59 1004.4
20260505234204 20 209 0.0 0.0 0.00 0.00 0.00 59 1004.4
20260505233704 20 306 0.0 0.0 0.00 0.00 0.00 59 1004.4
20260505233203 20 130 0.0 0.0 0.00 0.00 0.00 60 1004.5
20260505232703 20 237 0.0 0.0 0.00 0.00 0.00 60 1004.4
20260505232203 20 224 0.0 0.0 0.00 0.00 0.00 60 1004.4
20260505231703 20 217 0.0 0.0 0.00 0.00 0.00 60 1004.4
20260505231203 20 201 0.0 0.0 0.00 0.00 0.00 61 1004.3
20260505230204 20 195 0.0 0.0 0.00 0.00 0.00 60 1004.3
20260505225704 20 289 0.0 0.0 0.00 0.00 0.00 60 1004.4
20260505225204 20 208 0.0 0.0 0.00 0.00 0.00 60 1004.4
20260505224703 21 234 0.0 0.0 0.00 0.00 0.00 59 1004.6
20260505224203 21 224 0.0 0.0 0.00 0.00 0.00 59 1004.5
20260505223703 21 205 0.0 0.0 0.00 0.00 0.00 59 1004.6
20260505222704 21 221 0.0 0.0 0.00 0.00 0.00 59 1004.7
20260505222204 21 233 0.0 0.0 0.00 0.00 0.00 58 1004.7
20260505221703 21 185 0.0 0.0 0.00 0.00 0.00 59 1004.7
20260505221203 21 231 0.0 3.2 0.00 0.00 0.00 58 1004.7
20260505220703 21 223 0.0 0.0 0.00 0.00 0.00 58 1004.7
20260505220203 21 291 0.0 4.8 0.00 0.00 0.00 57 1004.7
20260505215704 21 220 0.0 3.2 0.00 0.00 0.00 58 1004.6
20260505215204 21 256 0.0 0.0 0.00 0.00 0.00 58 1004.6
20260505214704 21 274 0.0 4.8 0.00 0.00 0.00 57 1004.7
20260505213704 21 276 0.0 4.8 0.00 0.00 0.00 56 1004.9
20260505213204 21 252 0.0 12.9 0.00 0.00 0.00 56 1004.8
20260505212204 21 269 0.0 3.2 0.00 0.00 0.00 56 1004.8
20260505211705 21 200 1.6 9.7 0.00 0.00 0.00 57 1004.7
20260505211203 21 224 0.0 3.2 0.00 0.00 0.00 58 1004.7
20260505210204 21 249 0.0 1.6 0.00 0.00 0.00 58 1004.7
20260505205704 21 200 1.6 9.7 0.00 0.00 0.00 58 1004.7
20260505205203 21 192 1.6 9.7 0.00 0.00 0.00 58 1004.7
20260505204703 21 203 0.0 9.7 0.00 0.00 0.00 59 1004.7
20260505204204 21 215 0.0 4.8 0.00 0.00 0.00 58 1004.7
20260505203704 21 312 0.0 12.9 0.00 0.00 0.00 58 1004.7
20260505203204 21 208 0.0 4.8 0.00 0.00 0.00 58 1004.6
20260505202704 21 275 0.0 3.2 0.00 0.00 0.00 58 1004.5
20260505202204 21 203 0.0 3.2 0.00 0.00 0.00 59 1004.5
20260505201703 21 280 0.0 4.8 0.00 0.00 0.00 59 1004.6
20260505200703 21 204 0.0 1.6 0.00 0.00 0.00 58 1004.8
20260505195703 21 240 0.0 1.6 0.00 0.00 0.00 58 1004.9
20260505195203 21 208 0.0 0.0 0.00 0.00 0.00 59 1004.9
20260505194704 21 214 0.0 0.0 0.00 0.00 0.00 58 1004.9
20260505193704 21 274 0.0 0.0 0.00 0.00 0.00 60 1005.1
20260505193203 21 254 0.0 0.0 0.00 0.00 0.00 60 1005.2
20260505192705 21 267 0.0 0.0 0.00 0.00 0.00 60 1005.3
20260505191703 20 273 0.0 0.0 0.00 0.00 0.00 60 1005.5
20260505191204 20 243 0.0 0.0 0.00 0.00 0.00 61 1005.5
20260505190703 20 210 0.0 0.0 0.00 0.00 0.00 59 1005.5
20260505190204 21 279 0.0 0.0 0.00 0.00 0.00 59 1005.6
20260505184204 21 254 0.0 3.2 0.00 0.00 0.00 58 1005.6
20260505183704 21 254 0.0 4.8 0.00 0.00 0.00 58 1005.6
20260505183203 21 233 0.0 0.0 0.00 0.00 0.00 58 1005.6
20260505182704 21 303 0.0 1.6 0.00 0.00 0.00 57 1005.6
20260505181204 21 275 1.6 9.7 0.00 0.00 0.00 54 1005.6
20260505180704 22 266 1.6 11.3 0.00 0.00 0.00 54 1005.5
20260505180204 22 238 0.0 9.7 0.00 0.00 0.00 54 1005.6
20260505175703 22 300 1.6 11.3 0.00 0.00 0.00 53 1005.5
20260505175203 22 228 0.0 4.8 0.00 0.00 0.00 52 1005.5
20260505174203 22 293 1.6 12.9 0.00 0.00 0.00 53 1005.6
20260505173704 22 286 0.0 4.8 0.00 0.00 0.00 53 1005.5
20260505173204 22 206 1.6 4.8 0.00 0.00 0.00 54 1005.5
20260505172704 21 210 0.0 4.8 0.00 0.00 0.00 58 1005.6
20260505171704 21 228 0.0 4.8 0.00 0.00 0.00 56 1005.7
20260505171203 21 286 1.6 9.7 0.00 0.00 0.00 56 1005.7
20260505170203 21 286 0.0 3.2 0.00 0.00 0.00 56 1005.4
20260505165704 21 302 0.0 4.8 0.00 0.00 0.00 54 1005.3
20260505165203 22 285 3.2 19.3 0.00 0.00 0.00 52 1005.3
20260505164703 23 298 0.0 4.8 0.00 0.00 0.00 52 1005.1
20260505164204 23 295 0.0 4.8 0.00 0.00 0.00 51 1005.0
20260505163204 23 294 0.0 4.8 0.00 0.00 0.00 51 1004.9
20260505162703 23 192 3.2 12.9 0.00 0.00 0.00 49 1004.8
20260505162204 23 215 0.0 11.3 0.00 0.00 0.00 53 1004.8
20260505161704 23 274 0.0 0.0 0.00 0.00 0.00 52 1004.9
20260505161204 22 250 0.0 9.7 0.00 0.00 0.00 53 1004.9
20260505160704 22 208 1.6 8.0 0.00 0.00 0.00 54 1005.1
20260505160204 22 262 0.0 4.8 0.00 0.00 0.00 55 1005.2
20260505153204 21 279 1.6 9.7 0.00 0.00 0.00 58 1005.5
20260505152704 21 286 0.0 3.2 0.00 0.00 0.00 57 1005.5
20260505152203 21 277 0.0 1.6 0.00 0.00 0.00 58 1005.4
20260505151703 21 265 0.0 1.6 0.00 0.00 0.00 62 1005.5
20260505150703 20 308 0.0 9.7 0.00 0.00 0.00 62 1005.5
20260505150204 20 178 0.0 4.8 0.00 0.00 0.00 63 1005.4
20260505140203 18 239 0.0 1.6 0.00 0.00 0.00 63 1005.3
20260505124705 19 255 1.6 4.8 0.00 0.00 0.00 64 1005.3